[[[{"header":{"parameterUnit":"kt","parameterCategory":2,"dx":1,"dy":1,"la1":30.253999710083008,"la2":30.299108505249023,"lo1":-89.0895004272461,"lo2":-89.04439544677734,"nx":28,"ny":28,"refTime":"2022-10-15T21:00:00:Z","depth":"0","parameterNumber":2,"parameterNumberName":"U-component_of_CURRENTS"},"data":[0.5377,0.5375,0.5305,0.5205,0.5129,0.4937,0.4842,0.476,0.4813,0.494,0.5185,0.5453,0.6206,0.7122,0.7535,0.7516,0.7212,0.6904,0.69,0.7532,0.7563,0.7591,0.7327,0.7307,0.7307,0.5973,0.5965,0.5959,0.5263,0.5194,0.5296,0.5223,0.5178,0.5141,0.5109,0.5023,0.5007,0.5223,0.5354,0.5956,0.6504,0.7061,0.7716,0.7754,0.7507,0.7683,0.7171,0.7146,0.7814,0.7547,0.7574,0.7574,0.7574,0.7574,0.7574,0.7574,0.497,0.5052,0.5035,0.5091,0.5118,0.5061,0.5072,0.5109,0.521,0.532,0.5574,0.5835,0.6495,0.7323,0.7595,0.7948,0.7833,0.7984,0.8028,0.763,0.7296,0.7585,0.8089,0.809,0.8092,0.8093,0.8094,0,0.4613,0.4588,0.4727,0.4776,0.486,0.4944,0.5046,0.5124,0.5254,0.5426,0.5632,0.5877,0.6515,0.6987,0.76,0.798,0.7975,0.8278,0.8195,0.7891,0.7129,0.6907,0.7397,0.8243,0.8246,0.8248,0.8249,0.825,0.4022,0.4241,0.4365,0.4429,0.4505,0.4726,0.4823,0.4965,0.5104,0.5422,0.5583,0.6019,0.6304,0.7122,0.7572,0.8182,0.7998,0.8326,0.8162,0.7777,0.7645,0.7147,0.7007,0.8275,0.8272,0.8269,0.8267,0,0.3658,0.37,0.4052,0.4212,0.4247,0.4494,0.4624,0.4846,0.5054,0.5394,0.5547,0.5889,0.6356,0.6745,0.7505,0.7634,0.8017,0.825,0.7831,0.7712,0.7546,0.7464,0.7828,0.7734,0.854,0.8539,0.8537,0,0.3155,0.3453,0.3494,0.3699,0.4034,0.4102,0.4485,0.4677,0.4967,0.5224,0.5492,0.5769,0.627,0.6666,0.6973,0.7401,0.7703,0.7593,0.7527,0.7329,0.726,0.7193,0.709,0.8105,0.81,0.8096,0.8092,0,0.2673,0.2976,0.3322,0.3422,0.365,0.3848,0.3977,0.4294,0.4481,0.4995,0.5127,0.5773,0.5974,0.6525,0.6681,0.6529,0.7434,0.7239,0.7265,0.7228,0.7219,0.7143,0.7931,0.8086,0.8084,0.8082,0.8081,0,0.2296,0.2449,0.287,0.3136,0.3227,0.3415,0.3817,0.4023,0.4414,0.453,0.4933,0.5009,0.5619,0.5401,0.62,0.5837,0.6086,0.6225,0.6248,0.5943,0.545,0.5848,0.6557,0.6413,0.6156,0.6142,0.613,0,0.1862,0.2223,0.2244,0.2639,0.2861,0.287,0.313,0.3355,0.3501,0.383,0.4111,0.4441,0.4325,0.4466,0.489,0.5069,0.5539,0.5039,0.5513,0.5528,0.5252,0.5949,0.581,0.6338,0.595,0.5969,0.5982,0,0.1551,0.1728,0.179,0.1953,0.2104,0.2215,0.2493,0.2798,0.3039,0.3168,0.3592,0.3958,0.3977,0.412,0.4134,0.4522,0.5202,0.4314,0.4326,0.4569,0.6022,0.5717,0.5806,0.5179,0.5204,0.5224,0.584,0,0.1361,0.1494,0.1567,0.1768,0.1841,0.1997,0.2091,0.2193,0.2229,0.2356,0.2759,0.2861,0.3163,0.3216,0.3183,0.3859,0.3677,0.3558,0.3433,0.3883,0.4047,0.4161,0.2694,0.2686,0.2679,0.2673,0,0,0.1092,0.127,0.1185,0.134,0.1458,0.137,0.1587,0.1659,0.1754,0.1912,0.1759,0.2202,0.2248,0.2779,0.2925,0.2822,0.2932,0.2812,0.3548,0.3644,0.3734,0.3925,0.4041,0.2661,0.2658,0.2656,0.2654,0,0.1076,0.1027,0.1144,0.1199,0.1275,0.1323,0.134,0.141,0.1488,0.164,0.1686,0.1903,0.1955,0.2226,0.2339,0.2675,0.2675,0.2611,0.3031,0.3469,0.3574,0.3669,0.3876,0.3986,0.2636,0.2638,0.2638,0,0.0958,0.0994,0.1019,0.1079,0.1121,0.1268,0.1158,0.1225,0.1404,0.1257,0.1473,0.1503,0.1594,0.184,0.1921,0.1815,0.2444,0.2092,0.2127,0.2282,0.2729,0.2846,0.2949,0.1642,0.164,0.1638,0,0,0.0949,0.0992,0.1039,0.1081,0.1106,0.114,0.1167,0.1194,0.1243,0.1262,0.1291,0.1363,0.1526,0.1574,0.1657,0.1804,0.194,0.1983,0.203,0.2069,0.2243,0.2698,0.2807,0.163,0.163,0.163,0,0,0.0955,0.1015,0.1011,0.1057,0.1105,0.1165,0.1201,0.1196,0.1242,0.1252,0.1249,0.1258,0.145,0.1388,0.1284,0.1685,0.1475,0.1494,0.1778,0.1834,0.1879,0.2089,0.1241,0,0,0,0,0,0.0976,0.1007,0.1002,0.1015,0.1086,0.1158,0.1169,0.1201,0.1179,0.1206,0.1243,0.1207,0.1388,0.1293,0.1295,0.155,0.1528,0.1546,0.1563,0.1961,0.2022,0.2073,0,0,0,0,0,0,0.0981,0.0996,0.1002,0.106,0.1077,0.1157,0.1147,0.1156,0.1178,0.1181,0.1205,0.1208,0.1222,0.1289,0.1291,0.1539,0.124,0.1535,0.155,0.1564,0.1982,0.2032,0.2074,0,0,0,0,0,0.0986,0.0998,0.1102,0.106,0.1074,0.1125,0.1146,0.1154,0.1168,0.1199,0.1203,0.1191,0.1222,0.1225,0.129,0.1542,0.1238,0.1239,0.1545,0.1557,0.1568,0.2006,0,0,0,0,0,0,0.0989,0.1002,0.1106,0.1112,0.1056,0.1122,0.1133,0.1152,0.1184,0.119,0.1186,0.1187,0.1222,0.1225,0.1227,0.1554,0.1236,0.1238,0.1238,0.1554,0.1564,0.1572,0,0,0,0,0,0,0.0996,0.1006,0.1109,0.1101,0.1106,0.1119,0.1129,0.1141,0.1183,0.1168,0.1172,0.1186,0.1208,0.1224,0.1226,0.1246,0.1235,0.1236,0.1237,0.1238,0.1562,0.1569,0,0,0,0,0,0,0.1001,0.101,0.11,0.1104,0.1108,0.1175,0.1129,0.1192,0.1203,0.1165,0.1202,0.1202,0.1207,0.121,0.1226,0.1244,0.1245,0.1235,0.1236,0.1236,0.1237,0,0,0,0,0,0,0,0.1005,0.0936,0.1073,0.1106,0.111,0.1167,0.1169,0.117,0.1203,0.1203,0.1202,0.1202,0.1229,0.123,0.1231,0.1243,0,0,0.1235,0.1236,0,0,0,0,0,0,0,0,0.0933,0.0935,0.1074,0.1075,0.1076,0.1168,0.1169,0.117,0.1203,0.1203,0.1203,0.1202,0.1229,0.123,0.1231,0,0,0,0,0,0,0,0,0,0,0,0,0,0,0,0.1074,0.1075,0,0.1168,0.1169,0.1169,0.1203,0.1203,0.1203,0.1202,0.1229,0.123,0.1231,0,0,0,0,0,0,0,0,0,0,0,0,0,0,0,0,0,0,0,0,0,0,0,0,0,0,0,0,0,0,0,0,0,0,0,0,0,0,0,0,0,0,0,0,0,0,0,0,0,0,0,0,0,0,0,0,0,0,0,0,0,0,0,0,0,0,0,0,0]}],[{"header":{"parameterUnit":"kt","parameterCategory":2,"dx":1,"dy":1,"la1":30.253999710083008,"la2":30.299108505249023,"lo1":-89.0895004272461,"lo2":-89.04439544677734,"nx":28,"ny":28,"refTime":"2022-10-15T21:00:00:Z","depth":"0","parameterNumber":3,"parameterNumberName":"V-component_of_CURRENTS"},"data":[0.1571,0.1652,0.1718,0.1957,0.2102,0.2336,0.2504,0.2763,0.3073,0.3616,0.4026,0.4367,0.4336,0.2256,0.0648,0.0109,-0.0591,-0.0701,-0.1023,-0.0439,-0.0365,-0.0295,-0.0481,-0.1013,-0.1015,-0.2002,-0.2012,-0.2019,0.1561,0.1617,0.1767,0.1932,0.2105,0.2194,0.2497,0.2667,0.2952,0.3356,0.361,0.392,0.3331,0.2768,0.1808,0.098,0.06,0.048,0.0256,0.0096,0.1078,0.094,0.0701,0.0701,0.0702,0.0702,0.0703,0.0703,0.1517,0.1595,0.1663,0.1829,0.1991,0.22,0.2376,0.2596,0.2884,0.3257,0.3413,0.3704,0.3533,0.3151,0.2644,0.1765,0.1844,0.1433,0.1284,0.1229,0.0873,0.1856,0.1959,0.196,0.1961,0.1962,0.1962,0,0.1423,0.1445,0.1562,0.1711,0.1863,0.2064,0.2284,0.2458,0.2732,0.2967,0.3262,0.3426,0.3391,0.3222,0.2909,0.2658,0.1987,0.2286,0.1822,0.1322,0.1087,0.072,0.1765,0.2107,0.2109,0.211,0.2111,0.2112,0.1191,0.1324,0.1484,0.1574,0.1649,0.1885,0.2035,0.225,0.2444,0.2821,0.2974,0.3151,0.3288,0.3185,0.288,0.2671,0.2255,0.2341,0.2132,0.1583,0.1264,0.1122,0.0888,0.213,0.2128,0.2126,0.2125,0,0.1037,0.1083,0.1318,0.1484,0.1548,0.174,0.1964,0.2178,0.2376,0.2686,0.2781,0.2951,0.3011,0.2892,0.2851,0.2596,0.2267,0.2406,0.2264,0.2127,0.1464,0.1258,0.1334,0.1079,0.2293,0.2291,0.229,0,0.0783,0.0978,0.1032,0.1154,0.1438,0.1504,0.183,0.1969,0.221,0.2444,0.2503,0.2698,0.2619,0.2651,0.2459,0.2332,0.2489,0.2074,0.1952,0.1855,0.182,0.1348,0.1114,0.2264,0.2263,0.2261,0.226,0,0.0473,0.0687,0.0914,0.0974,0.1141,0.1306,0.142,0.1638,0.1798,0.2091,0.2203,0.2415,0.2459,0.2454,0.2214,0.2082,0.2288,0.2051,0.1852,0.1831,0.1718,0.167,0.1724,0.2259,0.2258,0.2258,0.2257,0,0.0222,0.0312,0.0596,0.0774,0.0832,0.0985,0.1266,0.1425,0.165,0.1706,0.1886,0.1829,0.2055,0.1777,0.1912,0.1772,0.1659,0.1559,0.1558,0.1323,0.0945,0.1015,0.1456,0.0984,0.1341,0.1335,0.133,0,-0.0089,0.0134,0.0116,0.0392,0.0518,0.0475,0.0691,0.0809,0.0878,0.108,0.112,0.1282,0.1079,0.1118,0.1241,0.1121,0.1278,0.1088,0.0998,0.0998,0.0835,0.129,0.1214,0.1364,0.1253,0.1261,0.1267,0,-0.0351,-0.0306,-0.0277,-0.0185,-0.0148,-0.0094,0.0124,0.0289,0.0461,0.0475,0.0748,0.0862,0.0775,0.0812,0.0707,0.0827,0.1123,0.0585,0.058,0.0647,0.1343,0.119,0.1225,0.1008,0.1019,0.1029,0.1205,0,-0.056,-0.0517,-0.0468,-0.0394,-0.0368,-0.0288,-0.029,-0.0229,-0.025,-0.0224,-0.0005,-0.0068,0.0044,0.0059,-0.0043,0.0313,0.016,0.0007,-0.0156,0.0179,0.0191,0.0242,-0.0473,-0.0481,-0.0488,-0.0494,0,0,-0.0798,-0.0736,-0.0887,-0.0796,-0.0751,-0.0924,-0.0776,-0.0766,-0.0796,-0.071,-0.0839,-0.0671,-0.0731,-0.0434,-0.0322,-0.0417,-0.0433,-0.0418,-0.0023,0.003,0.0078,0.0112,0.0168,-0.0506,-0.0508,-0.0511,-0.0513,0,-0.0862,-0.0983,-0.0912,-0.0926,-0.0971,-0.1003,-0.0993,-0.1054,-0.1037,-0.0951,-0.1032,-0.0956,-0.0958,-0.0865,-0.0833,-0.0541,-0.067,-0.0566,-0.0208,-0.0088,-0.0026,0.0028,0.0075,0.013,-0.053,-0.0528,-0.0528,0,-0.1007,-0.1066,-0.1074,-0.1144,-0.1187,-0.1108,-0.1293,-0.1296,-0.1182,-0.1421,-0.1281,-0.1343,-0.137,-0.1215,-0.1169,-0.1265,-0.0896,-0.1066,-0.1032,-0.0947,-0.0833,-0.0761,-0.0698,-0.1509,-0.1511,-0.1513,0,0,-0.1049,-0.1064,-0.1158,-0.1165,-0.118,-0.1277,-0.13,-0.135,-0.1396,-0.1415,-0.1462,-0.1478,-0.1425,-0.1411,-0.1411,-0.1309,-0.1331,-0.1173,-0.1127,-0.1088,-0.0983,-0.0859,-0.0791,-0.1521,-0.1521,-0.1521,0,0,-0.1063,-0.1163,-0.1225,-0.1244,-0.1285,-0.1375,-0.1366,-0.1436,-0.1468,-0.1475,-0.1582,-0.1597,-0.1487,-0.1575,-0.1667,-0.1401,-0.1607,-0.1592,-0.1302,-0.1248,-0.1203,-0.1066,-0.1792,0,0,0,0,0,-0.1163,-0.1148,-0.1204,-0.1222,-0.1337,-0.1356,-0.137,-0.1451,-0.1513,-0.1492,-0.1543,-0.1631,-0.1604,-0.169,-0.1705,-0.1502,-0.1622,-0.1604,-0.1587,-0.1194,-0.1135,-0.1084,0,0,0,0,0,0,-0.1171,-0.1192,-0.1204,-0.1296,-0.1323,-0.1359,-0.1457,-0.1479,-0.1515,-0.1525,-0.1618,-0.1634,-0.1698,-0.169,-0.1702,-0.1504,-0.1788,-0.1615,-0.16,-0.1586,-0.1174,-0.1125,-0.1083,0,0,0,0,0,-0.1177,-0.1195,-0.1359,-0.1297,-0.132,-0.1424,-0.1458,-0.1477,-0.1508,-0.1603,-0.1621,-0.1564,-0.1696,-0.1711,-0.1698,-0.1492,-0.178,-0.1785,-0.1605,-0.1593,-0.1582,-0.115,0,0,0,0,0,0,-0.1182,-0.1215,-0.1366,-0.1376,-0.1305,-0.1422,-0.1443,-0.1474,-0.1585,-0.1603,-0.1553,-0.1559,-0.1694,-0.1706,-0.1717,-0.1476,-0.1774,-0.1778,-0.1781,-0.1596,-0.1586,-0.1578,0,0,0,0,0,0,-0.1206,-0.1223,-0.1371,-0.1376,-0.1388,-0.142,-0.1439,-0.1476,-0.1584,-0.1529,-0.1538,-0.1554,-0.1672,-0.1703,-0.1712,-0.1768,-0.177,-0.1773,-0.1776,-0.1778,-0.1588,-0.1581,0,0,0,0,0,0,-0.1214,-0.1229,-0.1374,-0.1383,-0.1393,-0.1514,-0.1454,-0.1566,-0.1597,-0.1523,-0.16,-0.1602,-0.1667,-0.1678,-0.1707,-0.1759,-0.1766,-0.177,-0.1772,-0.1774,-0.1776,0,0,0,0,0,0,0,-0.1221,-0.1106,-0.1304,-0.1389,-0.1398,-0.1469,-0.1472,-0.1474,-0.1597,-0.1599,-0.16,-0.1602,-0.1747,-0.1751,-0.1756,-0.1752,0,0,-0.1769,-0.1771,0,0,0,0,0,0,0,0,-0.1102,-0.1105,-0.1305,-0.1307,-0.1309,-0.1469,-0.1471,-0.1474,-0.1597,-0.1598,-0.16,-0.1601,-0.1748,-0.1751,-0.1755,0,0,0,0,0,0,0,0,0,0,0,0,0,0,0,-0.1305,-0.1307,0,-0.1469,-0.1471,-0.1473,-0.1597,-0.1598,-0.1599,-0.16,-0.1749,-0.1752,-0.1755,0,0,0,0,0,0,0,0,0,0,0,0,0,0,0,0,0,0,0,0,0,0,0,0,0,0,0,0,0,0,0,0,0,0,0,0,0,0,0,0,0,0,0,0,0,0,0,0,0,0,0,0,0,0,0,0,0,0,0,0,0,0,0,0,0,0,0,0,0]}]],[[{"header":{"parameterUnit":"kt","parameterCategory":2,"dx":1,"dy":1,"la1":30.253999710083008,"la2":30.299108505249023,"lo1":-89.0895004272461,"lo2":-89.04439544677734,"nx":28,"ny":28,"refTime":"2022-10-15T21:00:00:Z","depth":"2","parameterNumber":2,"parameterNumberName":"U-component_of_CURRENTS"},"data":[0.1505,0.1538,0.1577,0.1651,0.1734,0.1808,0.1871,0.193,0.2055,0.2045,0.2105,0.2296,0.2525,0.2286,0.2271,0.2205,0.2299,0.209,0.2566,0.2715,0.2752,0.2854,0.2754,0,0,0,0,0,0.1534,0.1581,0.1657,0.1762,0.1824,0.1926,0.207,0.2118,0.2231,0.2405,0.2514,0.2391,0.245,0.2571,0.2497,0.2461,0.2465,0.2342,0.2425,0.2471,0.2512,0.2413,0.2065,0.2062,0.206,0.2058,0,0,0.1584,0.1621,0.1692,0.1794,0.1898,0.1999,0.2084,0.2231,0.2396,0.2586,0.2746,0.2851,0.299,0.2912,0.2841,0.2797,0.2975,0.2896,0.2917,0.2942,0.2861,0.2703,0.2633,0.2635,0.2637,0.2638,0.2639,0,0.1609,0.1649,0.172,0.1825,0.193,0.2058,0.2228,0.2322,0.2591,0.2751,0.2952,0.307,0.3219,0.3224,0.3201,0.3153,0.3262,0.3155,0.3484,0.3203,0.3048,0.2979,0.2978,0.3065,0.3069,0.3072,0.3075,0.3077,0.161,0.1655,0.1797,0.1852,0.1921,0.2096,0.2204,0.2443,0.2574,0.2901,0.2986,0.3221,0.3339,0.3447,0.3469,0.3468,0.355,0.3265,0.3254,0.3408,0.3338,0.3322,0.3305,0.3125,0.3118,0.3114,0.3109,0,0.1598,0.1657,0.1762,0.1914,0.1973,0.2091,0.231,0.2451,0.2679,0.2903,0.3005,0.3284,0.3433,0.3536,0.3702,0.3651,0.368,0.3629,0.3384,0.3304,0.3348,0.3324,0.3501,0.3495,0.349,0.3486,0.3482,0,0.1586,0.1665,0.1762,0.1808,0.1967,0.2072,0.2284,0.244,0.2677,0.285,0.307,0.3231,0.3463,0.3567,0.3595,0.3603,0.3755,0.357,0.3517,0.3386,0.3347,0.3543,0.3507,0.3855,0.3855,0.3855,0.3855,0,0.1518,0.1641,0.1739,0.1774,0.1916,0.2029,0.2141,0.2368,0.2508,0.2812,0.2925,0.3225,0.3367,0.3496,0.3531,0.3518,0.3698,0.3666,0.3493,0.3471,0.3316,0.3269,0.3854,0.3854,0.3854,0.3854,0.3854,0,0.1482,0.1534,0.1654,0.1783,0.1821,0.1912,0.2135,0.2266,0.252,0.2632,0.2872,0.2965,0.3242,0.3178,0.3431,0.3364,0.3387,0.3402,0.3402,0.3149,0.297,0.2806,0.3055,0.3276,0.3272,0.3269,0.3266,0,0.1397,0.1493,0.152,0.1648,0.1704,0.1764,0.1908,0.2053,0.2178,0.2361,0.2549,0.2749,0.2761,0.2879,0.3033,0.3098,0.3218,0.3115,0.3122,0.312,0.2867,0.3157,0.3012,0.3014,0.3223,0.3227,0.3231,0,0.1316,0.1373,0.1387,0.1435,0.1502,0.1546,0.1703,0.1856,0.1983,0.2109,0.2309,0.2569,0.2621,0.271,0.278,0.2909,0.3125,0.284,0.284,0.2784,0.3321,0.3114,0.3122,0.3156,0.3164,0.317,0.3197,0,0.1261,0.1299,0.1325,0.1385,0.1423,0.1476,0.154,0.162,0.1673,0.174,0.1998,0.2084,0.2264,0.2354,0.2361,0.2667,0.2575,0.2544,0.2397,0.2655,0.2623,0.2652,0.2251,0.2246,0.2242,0.2239,0,0,0.1178,0.1223,0.1202,0.1247,0.1282,0.1265,0.1335,0.1379,0.1432,0.152,0.1478,0.1767,0.1811,0.2091,0.221,0.2214,0.2218,0.2184,0.2531,0.2564,0.2594,0.2579,0.261,0.2232,0.2231,0.2229,0.2228,0,0.1157,0.1148,0.1185,0.1201,0.1224,0.1227,0.125,0.1261,0.1297,0.1407,0.1425,0.1574,0.1678,0.1794,0.1864,0.2135,0.2053,0.2193,0.2369,0.2493,0.2531,0.2565,0.2557,0.2588,0.2218,0.2219,0.2219,0,0.1106,0.1109,0.1119,0.1138,0.1134,0.1178,0.1114,0.1139,0.1211,0.1134,0.124,0.1299,0.1372,0.1548,0.1622,0.1551,0.1878,0.178,0.1804,0.1801,0.1919,0.1965,0.2006,0.147,0.1468,0.1466,0,0,0.1091,0.1107,0.111,0.1133,0.114,0.1118,0.1118,0.1108,0.1122,0.1124,0.1136,0.1198,0.1308,0.1355,0.1416,0.1555,0.1526,0.169,0.1726,0.1755,0.1768,0.1894,0.1939,0.1457,0.1456,0.1456,0,0,0.1079,0.1081,0.1074,0.1095,0.1107,0.1077,0.1082,0.1066,0.1083,0.1087,0.1061,0.1066,0.1222,0.1206,0.1089,0.1415,0.1271,0.1292,0.1418,0.1461,0.1496,0.1494,0.0999,0,0,0,0,0,0.1067,0.1087,0.1082,0.1085,0.107,0.1087,0.1081,0.1043,0.1017,0.1031,0.1051,0.0998,0.1174,0.1067,0.1072,0.1238,0.134,0.1361,0.1381,0.1575,0.1622,0.1661,0,0,0,0,0,0,0.1068,0.1071,0.1081,0.1057,0.1053,0.1084,0.1022,0.101,0.1015,0.1008,0.0997,0.0997,0.0972,0.1061,0.1066,0.1228,0.0997,0.1349,0.1366,0.1382,0.1591,0.1629,0.1662,0,0,0,0,0,0.1068,0.1071,0.1065,0.1054,0.1051,0.1012,0.102,0.101,0.1007,0.0989,0.0986,0.0984,0.0972,0.0977,0.1064,0.1229,0.0993,0.0995,0.136,0.1374,0.1386,0.161,0,0,0,0,0,0,0.1069,0.1041,0.1062,0.1059,0.1049,0.1009,0.1003,0.1011,0.0987,0.0984,0.0975,0.0971,0.0973,0.0976,0.098,0.1236,0.099,0.0992,0.0994,0.137,0.1381,0.1391,0,0,0,0,0,0,0.104,0.1039,0.106,0.1056,0.1052,0.1007,0.1002,0.1029,0.099,0.0972,0.0968,0.0974,0.0997,0.0976,0.0979,0.1018,0.0988,0.099,0.0991,0.0992,0.1379,0.1388,0,0,0,0,0,0,0.1038,0.1037,0.1056,0.1053,0.1048,0.1001,0.103,0.103,0.0945,0.0975,0.0943,0.0942,0.1,0.1,0.0978,0.1016,0.1018,0.0988,0.0989,0.099,0.0991,0,0,0,0,0,0,0,0.1036,0.1061,0.1093,0.105,0.1046,0.1031,0.1029,0.1027,0.0945,0.0944,0.0943,0.0942,0.0976,0.0978,0.0981,0.1014,0,0,0.0988,0.0989,0,0,0,0,0,0,0,0,0.106,0.1061,0.1093,0.1093,0.1093,0.1031,0.1029,0.1028,0.0945,0.0944,0.0943,0.0943,0.0977,0.0979,0.098,0,0,0,0,0,0,0,0,0,0,0,0,0,0,0,0.1093,0.1093,0,0.1031,0.1029,0.1028,0.0945,0.0944,0.0944,0.0943,0.0977,0.0979,0.098,0,0,0,0,0,0,0,0,0,0,0,0,0,0,0,0,0,0,0,0,0,0,0,0,0,0,0,0,0,0,0,0,0,0,0,0,0,0,0,0,0,0,0,0,0,0,0,0,0,0,0,0,0,0,0,0,0,0,0,0,0,0,0,0,0,0,0,0,0]}],[{"header":{"parameterUnit":"kt","parameterCategory":2,"dx":1,"dy":1,"la1":30.253999710083008,"la2":30.299108505249023,"lo1":-89.0895004272461,"lo2":-89.04439544677734,"nx":28,"ny":28,"refTime":"2022-10-15T21:00:00:Z","depth":"2","parameterNumber":3,"parameterNumberName":"V-component_of_CURRENTS"},"data":[0.0085,0.028,0.0377,0.0723,0.0909,0.1162,0.127,0.1301,0.1327,0.1216,0.114,0.0867,0.0388,0.0048,-0.0458,-0.0707,-0.072,-0.0754,-0.0832,-0.0585,-0.0568,-0.0913,-0.0816,0,0,0,0,0,0.0008,0.0136,0.0317,0.0556,0.0762,0.0845,0.1042,0.1126,0.1208,0.119,0.1084,0.0674,0.0226,-0.0155,-0.0656,-0.1036,-0.0992,-0.1119,-0.0966,-0.0956,-0.0947,-0.0889,-0.1048,-0.1048,-0.1048,-0.1047,0,0,-0.0106,-0.0006,0.0144,0.0343,0.0527,0.0715,0.0862,0.0976,0.1106,0.1152,0.0996,0.0839,0.0434,-0.0212,-0.0605,-0.093,-0.0958,-0.1059,-0.1047,-0.1036,-0.0992,-0.0974,-0.1173,-0.1174,-0.1174,-0.1175,-0.1175,0,-0.0178,-0.0131,-0.0026,0.0178,0.0334,0.0515,0.0705,0.0808,0.0945,0.0999,0.0977,0.0856,0.043,0.0023,-0.0468,-0.0727,-0.0807,-0.0914,-0.0851,-0.0726,-0.07,-0.0735,-0.0719,-0.0855,-0.0854,-0.0853,-0.0852,-0.0852,-0.0255,-0.02,-0.005,0.0053,0.0117,0.0301,0.0451,0.0589,0.0717,0.0809,0.0861,0.072,0.0579,0.0074,-0.0271,-0.0683,-0.0677,-0.0869,-0.0847,-0.0763,-0.0805,-0.0787,-0.0771,-0.0839,-0.084,-0.0842,-0.0843,0,-0.0291,-0.0259,-0.0147,-0.0026,0.0031,0.0154,0.0367,0.0508,0.0599,0.0742,0.0775,0.0724,0.0488,0.0241,-0.0077,-0.0274,-0.056,-0.0663,-0.0577,-0.0625,-0.0755,-0.0744,-0.0922,-0.0927,-0.0931,-0.0934,-0.0937,0,-0.0344,-0.0277,-0.0205,-0.0155,0.0001,0.0049,0.0237,0.0319,0.0447,0.057,0.0541,0.0575,0.037,0.021,-0.0014,-0.0315,-0.0281,-0.0511,-0.0573,-0.0503,-0.0505,-0.0406,-0.0398,-0.0453,-0.0452,-0.045,-0.0449,0,-0.0412,-0.0329,-0.0247,-0.022,-0.0115,-0.0034,0.0048,0.0164,0.0277,0.0359,0.0425,0.0372,0.037,0.0178,-0.0031,-0.0025,-0.0285,-0.0307,-0.0509,-0.0517,-0.0509,-0.0515,-0.0447,-0.0447,-0.0447,-0.0446,-0.0445,0,-0.047,-0.0423,-0.0331,-0.0229,-0.0197,-0.0139,0.0008,0.0085,0.0177,0.0227,0.0265,0.0261,0.0232,0.0168,-0.002,0.0029,-0.0099,-0.0206,-0.0216,-0.0302,-0.0361,-0.0458,-0.0523,-0.0362,-0.036,-0.0359,-0.0358,0,-0.0536,-0.0455,-0.0449,-0.036,-0.0306,-0.0282,-0.0194,-0.0126,-0.0071,0.0019,0.0014,0.0102,0.0049,0.0099,0.0032,-0.0062,-0.0127,-0.0049,-0.0251,-0.0256,-0.0324,-0.0383,-0.0326,-0.0495,-0.0338,-0.034,-0.0342,0,-0.0589,-0.0547,-0.054,-0.0502,-0.047,-0.0421,-0.0351,-0.0266,-0.0182,-0.0157,-0.0058,-0.0011,-0.0006,0.0031,0.0034,-0.0017,-0.0102,-0.0063,-0.0067,-0.0135,-0.0263,-0.0347,-0.0369,-0.0135,-0.0136,-0.0137,-0.0326,0,-0.0645,-0.0612,-0.0586,-0.0548,-0.0517,-0.0474,-0.0439,-0.0385,-0.035,-0.0309,-0.022,-0.0195,-0.0107,-0.0106,-0.0088,-0.0066,-0.0104,-0.012,-0.0113,-0.0119,-0.0205,-0.0217,-0.0083,-0.0084,-0.0084,-0.0085,0,0,-0.0711,-0.0663,-0.066,-0.0625,-0.0596,-0.06,-0.0548,-0.051,-0.0436,-0.0383,-0.0388,-0.0264,-0.0225,-0.0132,-0.0118,-0.0115,-0.0165,-0.0051,-0.0113,-0.0116,-0.0119,-0.02,-0.0211,-0.0085,-0.0086,-0.0086,-0.0086,0,-0.0726,-0.0709,-0.0677,-0.0658,-0.0633,-0.0608,-0.06,-0.0543,-0.0497,-0.0429,-0.0397,-0.0351,-0.0241,-0.0191,-0.0154,-0.0125,-0.0134,-0.0105,-0.005,-0.0115,-0.0117,-0.012,-0.02,-0.0209,-0.0087,-0.0087,-0.0087,0,-0.077,-0.0751,-0.0735,-0.0691,-0.0665,-0.0625,-0.0618,-0.0576,-0.0528,-0.0491,-0.039,-0.036,-0.0299,-0.0219,-0.0181,-0.0174,-0.0128,-0.0094,-0.0093,-0.0067,-0.0134,-0.0137,-0.0139,-0.0111,-0.011,-0.011,0,0,-0.0786,-0.076,-0.073,-0.0692,-0.0678,-0.0642,-0.0618,-0.0589,-0.0534,-0.0502,-0.0429,-0.0366,-0.031,-0.0257,-0.0205,-0.0134,-0.0171,-0.0096,-0.0094,-0.0093,-0.0068,-0.0133,-0.0136,-0.011,-0.011,-0.011,0,0,-0.078,-0.0746,-0.0752,-0.0697,-0.0673,-0.0616,-0.0584,-0.0568,-0.0501,-0.0489,-0.0416,-0.0392,-0.0317,-0.0282,-0.0287,-0.0172,-0.0182,-0.0179,-0.0167,-0.0165,-0.0164,-0.0142,-0.0224,0,0,0,0,0,-0.0802,-0.0761,-0.0768,-0.0758,-0.0681,-0.0633,-0.0621,-0.0566,-0.0554,-0.0524,-0.0467,-0.0417,-0.0271,-0.0273,-0.0253,-0.02,-0.0105,-0.0106,-0.0107,-0.0077,-0.0076,-0.0075,0,0,0,0,0,0,-0.0797,-0.0783,-0.0769,-0.0716,-0.0699,-0.0633,-0.0605,-0.0588,-0.0554,-0.0544,-0.0434,-0.0415,-0.0356,-0.0279,-0.0261,-0.0212,-0.023,-0.0105,-0.0106,-0.0107,-0.0077,-0.0076,-0.0075,0,0,0,0,0,-0.0794,-0.0783,-0.067,-0.0715,-0.0701,-0.0634,-0.0603,-0.0589,-0.0547,-0.0465,-0.0444,-0.0507,-0.0359,-0.0337,-0.0268,-0.0221,-0.0241,-0.0235,-0.0106,-0.0106,-0.0107,-0.0076,0,0,0,0,0,0,-0.0791,-0.076,-0.0666,-0.0661,-0.0707,-0.0634,-0.0618,-0.059,-0.0467,-0.0449,-0.0535,-0.0529,-0.0361,-0.0344,-0.0328,-0.0227,-0.025,-0.0244,-0.024,-0.0106,-0.0107,-0.0107,0,0,0,0,0,0,-0.0766,-0.0755,-0.0663,-0.0655,-0.0648,-0.0635,-0.0621,-0.0561,-0.0464,-0.054,-0.0533,-0.0534,-0.0373,-0.0348,-0.0336,-0.0246,-0.0257,-0.0251,-0.0247,-0.0245,-0.0107,-0.0107,0,0,0,0,0,0,-0.0761,-0.0751,-0.0655,-0.065,-0.0643,-0.057,-0.0579,-0.049,-0.0498,-0.0544,-0.0494,-0.0492,-0.0378,-0.0364,-0.0341,-0.0258,-0.0249,-0.0257,-0.0253,-0.025,-0.0248,0,0,0,0,0,0,0,-0.0756,-0.0831,-0.0709,-0.0646,-0.0639,-0.0612,-0.0609,-0.0607,-0.0497,-0.0496,-0.0494,-0.0493,-0.0292,-0.0285,-0.0278,-0.0268,0,0,-0.0258,-0.0255,0,0,0,0,0,0,0,0,-0.0834,-0.0832,-0.0709,-0.0708,-0.0707,-0.0611,-0.0609,-0.0607,-0.0497,-0.0496,-0.0494,-0.0493,-0.029,-0.0285,-0.0279,0,0,0,0,0,0,0,0,0,0,0,0,0,0,0,-0.0708,-0.0708,0,-0.0611,-0.0609,-0.0608,-0.0497,-0.0496,-0.0495,-0.0494,-0.0288,-0.0284,-0.028,0,0,0,0,0,0,0,0,0,0,0,0,0,0,0,0,0,0,0,0,0,0,0,0,0,0,0,0,0,0,0,0,0,0,0,0,0,0,0,0,0,0,0,0,0,0,0,0,0,0,0,0,0,0,0,0,0,0,0,0,0,0,0,0,0,0,0,0,0]}]],[[{"header":{"parameterUnit":"kt","parameterCategory":2,"dx":1,"dy":1,"la1":30.253999710083008,"la2":30.299108505249023,"lo1":-89.0895004272461,"lo2":-89.04439544677734,"nx":28,"ny":28,"refTime":"2022-10-15T21:00:00:Z","depth":"4","parameterNumber":2,"parameterNumberName":"U-component_of_CURRENTS"},"data":[0.0381,0.0437,0.0486,0.0576,0.0641,0.0737,0.0817,0.0916,0.0975,0.1135,0.116,0.1285,0.1325,0.1394,0.139,0.1401,0.1253,0.1503,0.1501,0.127,0.1262,0.1255,0.1266,0,0,0,0,0,0.0399,0.0441,0.0506,0.0614,0.0699,0.0766,0.09,0.0972,0.1134,0.1199,0.1289,0.1346,0.1399,0.1435,0.1413,0.1471,0.1362,0.1439,0.1236,0.1265,0.1256,0.127,0,0,0,0,0,0,0.0434,0.0461,0.0545,0.0641,0.0736,0.0819,0.0889,0.1015,0.1112,0.1318,0.1348,0.1446,0.1521,0.1513,0.1476,0.1452,0.1389,0.1292,0.1282,0.1273,0.1291,0.1333,0.1399,0,0,0,0,0,0.047,0.0519,0.0574,0.0679,0.0775,0.0858,0.1002,0.105,0.1227,0.1322,0.1436,0.1475,0.1518,0.1488,0.1478,0.1384,0.1289,0.1289,0.1281,0.1181,0.1207,0.1178,0.117,0.1222,0.122,0.122,0.1219,0,0.0518,0.0544,0.0668,0.0717,0.079,0.0912,0.0991,0.1141,0.1213,0.1383,0.1412,0.1504,0.1533,0.1474,0.1426,0.1344,0.1299,0.1268,0.1162,0.1192,0.1166,0.116,0.1155,0.1212,0.1212,0.1213,0.1214,0,0.0535,0.0602,0.0663,0.0786,0.0837,0.0911,0.1068,0.1129,0.1258,0.1345,0.1392,0.1458,0.1483,0.1426,0.1343,0.1271,0.1205,0.1189,0.1156,0.1129,0.1143,0.1141,0.12,0.1203,0.1205,0.1207,0.1208,0,0.0582,0.0623,0.0732,0.0763,0.0849,0.0935,0.1037,0.1115,0.1216,0.1282,0.1336,0.1374,0.1326,0.1307,0.1228,0.1193,0.1167,0.1101,0.1082,0.0995,0.0993,0.0961,0.0954,0.1012,0.1012,0.1012,0.1012,0,0.0597,0.0674,0.0729,0.0757,0.0852,0.0916,0.0985,0.1068,0.1119,0.122,0.1268,0.1275,0.1298,0.1239,0.1184,0.1152,0.1122,0.1047,0.106,0.1064,0.0957,0.0951,0.1012,0.1012,0.1012,0.1012,0.1012,0,0.0635,0.0674,0.073,0.082,0.0841,0.0887,0.0981,0.1024,0.1089,0.1135,0.1175,0.1175,0.1182,0.1144,0.1097,0.1106,0.1063,0.101,0.1009,0.1043,0.0994,0.093,0.0978,0.0978,0.0977,0.0977,0.0977,0,0.0643,0.069,0.0729,0.0783,0.0811,0.0865,0.0905,0.0949,0.0993,0.1042,0.103,0.1063,0.1033,0.1064,0.1043,0.0987,0.0986,0.0978,0.0924,0.0923,0.0992,0.105,0.0953,0.0972,0.0973,0.0973,0.0974,0,0.0638,0.0715,0.0723,0.0757,0.0808,0.0822,0.0868,0.0902,0.0949,0.0973,0.1017,0.0987,0.101,0.099,0.0962,0.0948,0.0977,0.0931,0.0928,0.0956,0.097,0.1036,0.1045,0.0951,0.0951,0.0951,0.0971,0,0.0666,0.0703,0.0721,0.0753,0.0777,0.0807,0.0821,0.0863,0.0901,0.091,0.0938,0.0909,0.0913,0.0894,0.0872,0.0883,0.0883,0.0841,0.0831,0.0859,0.0862,0.0864,0.0809,0.0807,0.0806,0.0805,0,0,0.0651,0.0678,0.07,0.0719,0.0739,0.0761,0.0782,0.0797,0.082,0.0843,0.0852,0.0844,0.0821,0.0808,0.0818,0.0797,0.08,0.0833,0.0838,0.0843,0.0846,0.0851,0.0855,0.0803,0.0802,0.0802,0.0801,0,0.064,0.0675,0.0694,0.0708,0.0736,0.0735,0.0756,0.0772,0.0796,0.0823,0.0799,0.0804,0.0805,0.0775,0.0757,0.0782,0.0773,0.0782,0.0849,0.0828,0.0834,0.0839,0.0845,0.085,0.0798,0.0799,0.0799,0,0.0624,0.0634,0.0648,0.0664,0.0678,0.0688,0.0688,0.0722,0.0737,0.0719,0.0763,0.0749,0.0712,0.0721,0.0729,0.0723,0.0754,0.0742,0.0747,0.0759,0.0736,0.0743,0.0749,0.0678,0.0678,0.0678,0,0,0.0613,0.0639,0.0633,0.0656,0.0666,0.0675,0.0688,0.07,0.0706,0.0722,0.0729,0.0726,0.0707,0.0721,0.07,0.0722,0.0706,0.0732,0.0737,0.0742,0.0757,0.0736,0.0742,0.0678,0.0678,0.0678,0,0,0.0598,0.0604,0.0614,0.0635,0.0642,0.0631,0.0659,0.067,0.0695,0.0716,0.0697,0.0698,0.0716,0.0701,0.0703,0.0709,0.0678,0.0678,0.0742,0.0748,0.0753,0.0776,0.0679,0,0,0,0,0,0.058,0.0599,0.0608,0.0611,0.0623,0.0624,0.0627,0.0643,0.0667,0.0689,0.0695,0.0689,0.0687,0.0689,0.0689,0.0715,0.0679,0.0679,0.0679,0.0762,0.0769,0.0775,0,0,0,0,0,0,0.0581,0.0583,0.0607,0.0595,0.0597,0.0624,0.062,0.0625,0.0665,0.067,0.0686,0.0687,0.0667,0.0689,0.0689,0.0714,0.0679,0.0679,0.0679,0.0679,0.0765,0.0771,0.0776,0,0,0,0,0,0.0581,0.0583,0.0603,0.0595,0.0597,0.0614,0.0621,0.0625,0.0671,0.0646,0.0651,0.0688,0.0666,0.0668,0.0689,0.0714,0.0679,0.0679,0.0679,0.0679,0.0679,0.0768,0,0,0,0,0,0,0.0581,0.0589,0.0604,0.0604,0.0602,0.0615,0.0619,0.0626,0.0647,0.065,0.0642,0.0644,0.0665,0.0667,0.0668,0.0716,0.0679,0.0679,0.0679,0.0679,0.0679,0.0679,0,0,0,0,0,0,0.0587,0.059,0.0604,0.0613,0.0615,0.0616,0.0619,0.0617,0.0647,0.0642,0.0644,0.0642,0.0662,0.0666,0.0667,0.0663,0.0679,0.0679,0.0679,0.0679,0.0679,0.0679,0,0,0,0,0,0,0.0588,0.059,0.0613,0.0614,0.0616,0.0629,0.0614,0.0628,0.0651,0.0641,0.0654,0.0655,0.066,0.0662,0.0666,0.0661,0.0662,0.0679,0.0679,0.0679,0.0679,0,0,0,0,0,0,0,0.0589,0.0576,0.0596,0.0616,0.0617,0.0612,0.0612,0.0613,0.0652,0.0653,0.0654,0.0654,0.0678,0.0678,0.0678,0.066,0,0,0.0679,0.0679,0,0,0,0,0,0,0,0,0.0575,0.0576,0.0596,0.0596,0.0596,0.0612,0.0612,0.0613,0.0652,0.0653,0.0653,0.0654,0.0678,0.0678,0.0678,0,0,0,0,0,0,0,0,0,0,0,0,0,0,0,0.0596,0.0596,0,0.0612,0.0612,0.0612,0.0652,0.0653,0.0653,0.0654,0.0678,0.0678,0.0678,0,0,0,0,0,0,0,0,0,0,0,0,0,0,0,0,0,0,0,0,0,0,0,0,0,0,0,0,0,0,0,0,0,0,0,0,0,0,0,0,0,0,0,0,0,0,0,0,0,0,0,0,0,0,0,0,0,0,0,0,0,0,0,0,0,0,0,0,0]}],[{"header":{"parameterUnit":"kt","parameterCategory":2,"dx":1,"dy":1,"la1":30.253999710083008,"la2":30.299108505249023,"lo1":-89.0895004272461,"lo2":-89.04439544677734,"nx":28,"ny":28,"refTime":"2022-10-15T21:00:00:Z","depth":"4","parameterNumber":3,"parameterNumberName":"V-component_of_CURRENTS"},"data":[-0.0016,0.0007,0.0026,0.0056,0.008,0.0084,0.008,0.0051,0.0048,-0.0004,-0.0112,-0.0186,-0.0402,-0.0332,-0.0619,-0.067,-0.0744,-0.102,-0.1021,-0.1164,-0.117,-0.1176,-0.1144,0,0,0,0,0,-0.0012,0.0001,0.0023,0.0046,0.0058,0.006,0.004,0.0021,-0.0028,-0.0037,-0.0084,-0.0208,-0.0414,-0.054,-0.0638,-0.0783,-0.0983,-0.0902,-0.1018,-0.1168,-0.1175,-0.1141,0,0,0,0,0,0,-0.0017,-0.0004,0.0015,0.0031,0.0035,0.0038,0.0025,-0.0002,-0.0037,-0.0141,-0.0153,-0.0339,-0.0464,-0.0655,-0.0786,-0.0905,-0.0933,-0.095,-0.0968,-0.0977,-0.0916,-0.0811,-0.0748,0,0,0,0,0,-0.0025,-0.0023,-0.0008,0.0014,0.0004,0.0001,-0.0033,-0.004,-0.0134,-0.0205,-0.0271,-0.0403,-0.0547,-0.0741,-0.0874,-0.1,-0.1194,-0.1193,-0.1198,-0.1217,-0.1161,-0.1145,-0.114,-0.1201,-0.1202,-0.1202,-0.1203,0,-0.0042,-0.0033,-0.0021,-0.0016,-0.0024,-0.0051,-0.0078,-0.0162,-0.0203,-0.0326,-0.0357,-0.0514,-0.064,-0.0801,-0.0996,-0.1162,-0.118,-0.1211,-0.123,-0.1171,-0.1155,-0.1148,-0.1142,-0.1208,-0.1208,-0.1207,-0.1207,0,-0.0052,-0.0051,-0.0042,-0.0061,-0.0069,-0.0089,-0.0147,-0.0198,-0.0299,-0.0377,-0.0425,-0.061,-0.0751,-0.0916,-0.1087,-0.114,-0.1239,-0.1246,-0.1241,-0.1228,-0.1157,-0.1148,-0.1217,-0.1215,-0.1214,-0.1212,-0.1211,0,-0.0064,-0.0068,-0.0066,-0.0064,-0.0083,-0.0131,-0.0191,-0.0267,-0.0375,-0.0434,-0.06,-0.0676,-0.0882,-0.0989,-0.1089,-0.1174,-0.1226,-0.122,-0.1211,-0.1242,-0.1233,-0.1238,-0.1228,-0.1329,-0.1329,-0.1329,-0.1329,0,-0.0067,-0.0078,-0.0076,-0.0085,-0.0121,-0.0157,-0.0202,-0.032,-0.0376,-0.0537,-0.0593,-0.0775,-0.0857,-0.0976,-0.1092,-0.1095,-0.1231,-0.123,-0.12,-0.1192,-0.1233,-0.1223,-0.1329,-0.1329,-0.1329,-0.1329,-0.1329,0,-0.008,-0.0071,-0.0079,-0.0102,-0.0113,-0.0148,-0.0243,-0.0307,-0.0448,-0.0522,-0.0659,-0.0751,-0.0894,-0.0918,-0.108,-0.1055,-0.1103,-0.1147,-0.1148,-0.1079,-0.1031,-0.1028,-0.1122,-0.112,-0.1119,-0.1117,-0.1116,0,-0.0067,-0.0067,-0.0083,-0.011,-0.0113,-0.0173,-0.0232,-0.0318,-0.0408,-0.0508,-0.0632,-0.074,-0.0798,-0.0863,-0.0944,-0.1019,-0.1071,-0.1029,-0.1083,-0.1084,-0.0999,-0.1073,-0.1079,-0.1098,-0.11,-0.1102,-0.1103,0,-0.0058,-0.0061,-0.0068,-0.0074,-0.0127,-0.0147,-0.0222,-0.0301,-0.0362,-0.0479,-0.0569,-0.0717,-0.0778,-0.083,-0.0894,-0.0958,-0.1037,-0.0967,-0.0969,-0.0955,-0.1131,-0.1057,-0.106,-0.1066,-0.1068,-0.1071,-0.109,0,-0.0046,-0.0054,-0.0059,-0.009,-0.0116,-0.0143,-0.0203,-0.0263,-0.0332,-0.0395,-0.053,-0.0618,-0.0723,-0.0764,-0.0798,-0.0909,-0.0892,-0.0895,-0.0866,-0.0932,-0.0928,-0.0938,-0.0805,-0.0805,-0.0804,-0.0804,0,0,-0.004,-0.0047,-0.0063,-0.0075,-0.0095,-0.0146,-0.0169,-0.0221,-0.0311,-0.0361,-0.0385,-0.0562,-0.0615,-0.0728,-0.0771,-0.0785,-0.0801,-0.0792,-0.0897,-0.0907,-0.0917,-0.0917,-0.0927,-0.0802,-0.0802,-0.0802,-0.0802,0,-0.0037,-0.0047,-0.0053,-0.0074,-0.0113,-0.0142,-0.0157,-0.0216,-0.0268,-0.0347,-0.0406,-0.0493,-0.0585,-0.065,-0.0691,-0.0768,-0.0774,-0.0796,-0.0835,-0.0889,-0.09,-0.091,-0.0912,-0.0922,-0.08,-0.08,-0.08,0,-0.0037,-0.0049,-0.0056,-0.0082,-0.011,-0.0134,-0.0161,-0.02,-0.0246,-0.0289,-0.0379,-0.044,-0.0505,-0.059,-0.0631,-0.0616,-0.0738,-0.0705,-0.071,-0.0717,-0.0771,-0.0784,-0.0796,-0.0645,-0.0644,-0.0644,0,0,-0.0037,-0.0044,-0.0074,-0.0085,-0.0095,-0.0142,-0.0162,-0.0201,-0.0254,-0.0285,-0.0345,-0.0415,-0.0482,-0.0522,-0.0577,-0.0639,-0.0647,-0.0686,-0.0693,-0.0699,-0.0709,-0.0765,-0.0777,-0.0642,-0.0642,-0.0641,0,0,-0.0045,-0.0067,-0.0085,-0.0091,-0.0125,-0.0165,-0.0181,-0.0215,-0.0279,-0.0301,-0.0351,-0.037,-0.0459,-0.0478,-0.0443,-0.0581,-0.0553,-0.056,-0.0568,-0.0578,-0.0585,-0.0584,-0.0455,0,0,0,0,0,-0.0061,-0.0058,-0.0073,-0.0078,-0.012,-0.015,-0.0159,-0.0206,-0.0234,-0.0253,-0.0319,-0.0333,-0.0481,-0.0451,-0.0463,-0.0515,-0.0612,-0.0617,-0.0622,-0.0648,-0.0657,-0.0666,0,0,0,0,0,0,-0.0064,-0.0069,-0.0073,-0.0108,-0.0118,-0.015,-0.018,-0.0193,-0.0234,-0.0243,-0.032,-0.0333,-0.0365,-0.0446,-0.0457,-0.0506,-0.0452,-0.0614,-0.0619,-0.0623,-0.0651,-0.0659,-0.0666,0,0,0,0,0,-0.0065,-0.007,-0.0124,-0.0109,-0.0118,-0.0175,-0.0182,-0.0193,-0.0236,-0.0285,-0.0302,-0.0275,-0.0363,-0.0377,-0.0452,-0.0502,-0.0445,-0.0449,-0.0617,-0.062,-0.0624,-0.0655,0,0,0,0,0,0,-0.0067,-0.0086,-0.0127,-0.0132,-0.0121,-0.0176,-0.0186,-0.0193,-0.0279,-0.0293,-0.024,-0.0246,-0.0361,-0.0372,-0.0383,-0.05,-0.0439,-0.0443,-0.0446,-0.062,-0.0622,-0.0625,0,0,0,0,0,0,-0.0084,-0.0089,-0.0129,-0.0142,-0.0149,-0.0177,-0.0186,-0.022,-0.0281,-0.0231,-0.0237,-0.0242,-0.0355,-0.0369,-0.0377,-0.0427,-0.0435,-0.0439,-0.0441,-0.0443,-0.0622,-0.0624,0,0,0,0,0,0,-0.0087,-0.0092,-0.0142,-0.0147,-0.0153,-0.0211,-0.021,-0.0259,-0.0267,-0.0227,-0.0271,-0.0273,-0.0351,-0.036,-0.0373,-0.0419,-0.0425,-0.0435,-0.0437,-0.0439,-0.044,0,0,0,0,0,0,0,-0.009,-0.0043,-0.0096,-0.015,-0.0156,-0.0174,-0.0176,-0.0178,-0.0267,-0.0269,-0.0271,-0.0272,-0.0414,-0.0418,-0.0422,-0.0412,0,0,-0.0435,-0.0436,0,0,0,0,0,0,0,0,-0.0043,-0.0043,-0.0096,-0.0097,-0.0098,-0.0175,-0.0176,-0.0177,-0.0267,-0.0269,-0.027,-0.0272,-0.0415,-0.0418,-0.0421,0,0,0,0,0,0,0,0,0,0,0,0,0,0,0,-0.0096,-0.0097,0,-0.0175,-0.0176,-0.0177,-0.0268,-0.0269,-0.027,-0.0271,-0.0416,-0.0419,-0.0421,0,0,0,0,0,0,0,0,0,0,0,0,0,0,0,0,0,0,0,0,0,0,0,0,0,0,0,0,0,0,0,0,0,0,0,0,0,0,0,0,0,0,0,0,0,0,0,0,0,0,0,0,0,0,0,0,0,0,0,0,0,0,0,0,0,0,0,0,0]}]]]